Tracking 18984 objects as of 24-Feb-2018
HD Live streaming from Space Station
objects crossing your sky now

COSMOS 1328

Track COSMOS 1328 now!
10-day predictions
COSMOS 1328 is classified as:


NORAD ID: 12987
Int'l Code: 1981-117A
Perigee: 541.3 km
Apogee: 560.0 km
Inclination: 82.5 °
Period: 95.5 minutes
Semi major axis: 6921 km
RCS: 9.2433 m2 (large)
Launch date: December 3, 1981
Source: Commonwealth of Independent States (former USSR) (CIS)
Launch site: PLESETSK MISSILE AND SPACE COMPLEX (PKMTR)
aabbcc
Your satellite tracking list
Your tracking list is empty




NASA's NSSDC Master Catalog

Two Line Element Set (TLE):
1 12987U 81117A   18055.26694263 -.00000079 +00000-0 -71704-5 0  9994
2 12987 082.5196 355.3099 0013521 120.5579 239.6986 15.07598648970197
Source of the keplerian elements: AFSPC